Location: Bratislava
(48.1500°N, 17.1170°E)
Time: 21:38:40
(UTC+01:00)

Envisat - Visible Passes

Search period start: 23 November 2017 00:00
Search period end: 03 December 2017 00:00
Orbit: 764 x 766 km, 98.2° (Epoch: 23 November)

Date Brightness Start Highest point End Pass type
(mag) Time Alt. Az. Time Alt. Az. Time Alt. Az.
23 Nov 5.2 19:01:51 14° N 19:01:51 14° N 19:02:28 10° N visible
24 Nov 5.1 18:24:47 12° N 18:24:47 12° N 18:25:18 10° N visible
25 Nov 5.5 19:27:55 12° NNW 19:27:55 12° NNW 19:28:12 10° NNW visible
26 Nov 5.3 18:50:50 12° N 18:50:50 12° N 18:51:15 10° N visible
27 Nov 5.2 18:13:45 11° NNE 18:13:45 11° NNE 18:13:57 10° N visible
28 Nov 5.5 19:16:52 11° N 19:16:52 11° N 19:17:03 10° N visible
29 Nov 5.3 18:39:47 11° N 18:39:47 11° N 18:40:01 10° N visible
01 Dec 5.5 19:05:48 10° N 19:05:48 10° N 19:05:52 10° N visible
02 Dec 5.3 18:28:42 10° N 18:28:42 10° N 18:28:44 10° N visible
